Coeur d'Alene, ID

5:05 AM PDT on July 22, 2017 (GMT -0700)
Coeur D'Alene

Weather History for KCOE - November, 2013

Change the Weather History Date:

Saturday, November 23, 2013

  Actual Average Record
Temperature  
Mean Temperature 27 °F -  
Max Temperature 35 °F 38 °F 53 °F (2011)
Min Temperature 19 °F 28 °F 0 °F (2010)
Degree Days  
Heating Degree Days 38    
Moisture  
Dew Point 17 °F    
Average Humidity 71    
Maximum Humidity 86    
Minimum Humidity 44    
Precipitation  
Precipitation 0.00 in - - ()
Sea Level Pressure  
Sea Level Pressure 30.47 in    
Wind  
Wind Speed 10 mph (NE)    
Max Wind Speed 15 mph    
Max Gust Speed -    
Visibility 10 miles    
Events      
Averages and records for this station are not official NWS values.
T = Trace of Precipitation, MM = Missing Value Source: NWS Daily Summary

Daily Weather History Graph

Daily Weather History Graph

Search for Another Location

Airport or City:

Trip Planner

Search our weather history database for the weather conditions in past years. The results will help you decide how hot, cold, wet, or windy it might be!

Date:

Astronomy

Nov. 23, 2013 Rise Set
Actual Time 7:05 AM PST 4:02 PM PST
Civil Twilight 6:30 AM PST 4:36 PM PST
Nautical Twilight 5:52 AM PST 5:14 PM PST
Astronomical Twilight 5:15 AM PST 5:51 PM PST
Moon 9:45 PM PST (11/23) 11:15 AM PST (11/23)
Length of Visible Light 10h 06m
Length of Day
8h 57m
Waning Gibbous, 68% of the Moon is Illuminated
Nov 23
Waning Gibbous
Nov 25
Last Quarter
Dec 2
New
Dec 9
First Quarter
Dec 17
Full

Hourly Weather History & Observations

Time (PST) Temp. Windchill Dew Point Humidity Pressure Visibility Wind Dir Wind Speed Gust Speed Precip Events Conditions
12:15 AM 23.0 °F 11.1 °F 15.8 °F 74% 30.61 in 10.0 mi NE 12.7 mph - N/A   Clear
12:35 AM 21.2 °F 10.1 °F 15.8 °F 80% 30.61 in 10.0 mi NE 10.4 mph - N/A   Clear
12:55 AM 21.2 °F 10.9 °F 15.8 °F 80% 30.61 in 10.0 mi ENE 9.2 mph - N/A   Clear
1:15 AM 21.2 °F 10.1 °F 15.8 °F 80% 30.60 in 10.0 mi NE 10.4 mph - N/A   Clear
1:35 AM 21.2 °F 10.1 °F 15.8 °F 80% 30.59 in 10.0 mi NE 10.4 mph - N/A   Clear
1:55 AM 21.2 °F 10.1 °F 15.8 °F 80% 30.60 in 10.0 mi ENE 10.4 mph - N/A   Clear
2:15 AM 21.2 °F 10.1 °F 15.8 °F 80% 30.60 in 10.0 mi ENE 10.4 mph - N/A   Clear
2:35 AM 21.2 °F 10.9 °F 15.8 °F 80% 30.60 in 10.0 mi ENE 9.2 mph - N/A   Clear
2:55 AM 21.2 °F 9.5 °F 15.8 °F 80% 30.59 in 10.0 mi NE 11.5 mph - N/A   Clear
3:15 AM 21.2 °F 8.3 °F 15.8 °F 80% 30.59 in 10.0 mi NE 13.8 mph - N/A   Clear
3:35 AM 21.2 °F 9.5 °F 15.8 °F 80% 30.58 in 10.0 mi ENE 11.5 mph - N/A   Clear
3:55 AM 21.2 °F 10.1 °F 15.8 °F 80% 30.57 in 10.0 mi ENE 10.4 mph - N/A   Clear
4:15 AM 21.2 °F 10.9 °F 15.8 °F 80% 30.57 in 10.0 mi ENE 9.2 mph - N/A   Clear
4:35 AM 21.2 °F 8.9 °F 15.8 °F 80% 30.57 in 10.0 mi ENE 12.7 mph - N/A   Clear
4:55 AM 21.2 °F 9.5 °F 15.8 °F 80% 30.57 in 10.0 mi ENE 11.5 mph - N/A   Clear
5:15 AM 21.2 °F 8.9 °F 15.8 °F 80% 30.56 in 10.0 mi ENE 12.7 mph - N/A   Clear
5:35 AM 21.2 °F 10.1 °F 15.8 °F 80% 30.56 in 10.0 mi ENE 10.4 mph - N/A   Clear
5:55 AM 21.2 °F 10.1 °F 15.8 °F 80% 30.56 in 10.0 mi ENE 10.4 mph - N/A   Clear
6:15 AM 21.2 °F 9.5 °F 15.8 °F 80% 30.55 in 10.0 mi ENE 11.5 mph - N/A   Clear
6:35 AM 19.4 °F 6.0 °F 15.8 °F 86% 30.55 in 10.0 mi NE 13.8 mph - N/A   Clear
6:55 AM 21.2 °F 8.9 °F 15.8 °F 80% 30.55 in 10.0 mi NE 12.7 mph - N/A   Clear
7:15 AM 21.2 °F 10.9 °F 15.8 °F 80% 30.55 in 10.0 mi NE 9.2 mph - N/A   Clear
7:35 AM 21.2 °F 11.7 °F 15.8 °F 80% 30.55 in 10.0 mi ENE 8.1 mph - N/A   Clear
7:55 AM 23.0 °F 12.4 °F 17.6 °F 80% 30.55 in 10.0 mi ENE 10.4 mph - N/A   Clear
8:15 AM 24.8 °F 14.0 °F 17.6 °F 74% 30.54 in 10.0 mi NE 11.5 mph - N/A   Clear
8:35 AM 24.8 °F 14.0 °F 17.6 °F 74% 30.54 in 10.0 mi NE 11.5 mph - N/A   Clear
8:55 AM 26.6 °F 16.8 °F 19.4 °F 74% 30.54 in 10.0 mi NE 10.4 mph - N/A   Clear
9:15 AM 26.6 °F 16.2 °F 17.6 °F 69% 30.54 in 10.0 mi NE 11.5 mph - N/A   Clear
9:35 AM 28.4 °F 18.0 °F 17.6 °F 64% 30.53 in 10.0 mi NNE 12.7 mph - N/A   Clear
9:55 AM 28.4 °F 17.0 °F 19.4 °F 69% 30.53 in 10.0 mi NE 15.0 mph - N/A   Clear
10:15 AM 30.2 °F 19.3 °F 19.4 °F 64% 30.53 in 10.0 mi NE 15.0 mph - N/A   Clear
10:35 AM 30.2 °F 20.8 °F 19.4 °F 64% 30.52 in 10.0 mi NE 11.5 mph - N/A   Clear
10:55 AM 30.2 °F 19.8 °F 19.4 °F 64% 30.51 in 10.0 mi NNE 13.8 mph - N/A   Clear
11:15 AM 32.0 °F 23.0 °F 19.4 °F 60% 30.49 in 10.0 mi NNE 11.5 mph - N/A   Clear
11:35 AM 33.8 °F 25.3 °F 19.4 °F 56% 30.49 in 10.0 mi NNE 11.5 mph - N/A   Clear
11:55 AM 33.8 °F 24.8 °F 19.4 °F 56% 30.48 in 10.0 mi NE 12.7 mph - N/A   Clear
12:15 PM 35.6 °F 27.1 °F 19.4 °F 52% 30.48 in 10.0 mi NNE 12.7 mph - N/A   Clear
12:35 PM 35.6 °F 27.5 °F 17.6 °F 48% 30.46 in 10.0 mi NNE 11.5 mph - N/A   Clear
12:55 PM 35.6 °F 27.5 °F 17.6 °F 48% 30.45 in 10.0 mi NNE 11.5 mph - N/A   Clear
1:15 PM 35.6 °F 29.2 °F 19.4 °F 52% 30.44 in 10.0 mi NE 8.1 mph - N/A   Clear
1:35 PM 35.6 °F 28.0 °F 17.6 °F 48% 30.44 in 10.0 mi NNE 10.4 mph - N/A   Clear
1:55 PM 35.6 °F 28.0 °F 19.4 °F 52% 30.42 in 10.0 mi NE 10.4 mph - N/A   Clear
2:15 PM 35.6 °F 28.6 °F 17.6 °F 48% 30.42 in 10.0 mi NNE 9.2 mph - N/A   Clear
2:35 PM 35.6 °F 28.6 °F 19.4 °F 52% 30.42 in 10.0 mi NNE 9.2 mph - N/A   Clear
2:55 PM 35.6 °F 28.6 °F 19.4 °F 52% 30.41 in 10.0 mi NNE 9.2 mph - N/A   Clear
3:15 PM 35.6 °F 29.2 °F 15.8 °F 44% 30.41 in 10.0 mi NNE 8.1 mph - N/A   Clear
3:35 PM 33.8 °F 28.6 °F 19.4 °F 56% 30.40 in 10.0 mi NE 5.8 mph - N/A   Clear
3:55 PM 33.8 °F 27.7 °F 19.4 °F 56% 30.40 in 10.0 mi NNE 6.9 mph - N/A   Clear
4:15 PM 32.0 °F 24.2 °F 19.4 °F 60% 30.39 in 10.0 mi NE 9.2 mph - N/A   Clear
4:35 PM 30.2 °F 22.6 °F 19.4 °F 64% 30.39 in 10.0 mi NNE 8.1 mph - N/A   Clear
4:55 PM 30.2 °F 21.9 °F 17.6 °F 60% 30.39 in 10.0 mi NNE 9.2 mph - N/A   Clear
5:15 PM 28.4 °F 20.4 °F 19.4 °F 69% 30.39 in 10.0 mi NE 8.1 mph - N/A   Clear
5:35 PM 28.4 °F 20.4 °F 19.4 °F 69% 30.38 in 10.0 mi ENE 8.1 mph - N/A   Clear
5:55 PM 24.8 °F 17.9 °F 15.8 °F 69% 30.37 in 10.0 mi ENE 5.8 mph - N/A   Clear
6:15 PM 26.6 °F 19.1 °F 17.6 °F 69% 30.36 in 10.0 mi NNE 6.9 mph - N/A   Clear
6:35 PM 24.8 °F 20.5 °F 17.6 °F 74% 30.35 in 10.0 mi ENE 3.5 mph - N/A   Clear
6:55 PM 24.8 °F 16.1 °F 19.4 °F 80% 30.35 in 10.0 mi NE 8.1 mph - N/A   Clear
7:15 PM 24.8 °F 15.3 °F 19.4 °F 80% 30.35 in 10.0 mi ENE 9.2 mph - N/A   Clear
7:35 PM 24.8 °F 16.1 °F 17.6 °F 74% 30.35 in 10.0 mi ENE 8.1 mph - N/A   Clear
7:55 PM 24.8 °F 17.9 °F 17.6 °F 74% 30.35 in 10.0 mi ENE 5.8 mph - N/A   Clear
8:15 PM 24.8 °F 16.1 °F 17.6 °F 74% 30.34 in 10.0 mi NE 8.1 mph - N/A   Clear
8:35 PM 24.8 °F 16.1 °F 19.4 °F 80% 30.33 in 10.0 mi NE 8.1 mph - N/A   Clear
8:55 PM 24.8 °F 16.1 °F 17.6 °F 74% 30.33 in 10.0 mi NE 8.1 mph - N/A   Clear
9:15 PM 23.0 °F 13.9 °F 15.8 °F 74% 30.33 in 10.0 mi ENE 8.1 mph - N/A   Clear
9:35 PM 24.8 °F 16.1 °F 17.6 °F 74% 30.33 in 10.0 mi East 8.1 mph - N/A   Clear
9:55 PM 23.0 °F 14.7 °F 17.6 °F 80% 30.34 in 10.0 mi East 6.9 mph - N/A   Clear
10:15 PM 23.0 °F 17.0 °F 17.6 °F 80% 30.34 in 10.0 mi East 4.6 mph - N/A   Clear
10:35 PM 21.2 °F 14.9 °F 17.6 °F 86% 30.33 in 10.0 mi NE 4.6 mph - N/A   Clear
10:55 PM 23.0 °F 14.7 °F 17.6 °F 80% 30.34 in 10.0 mi NNE 6.9 mph - N/A   Clear
11:15 PM 21.2 °F 13.6 °F 17.6 °F 86% 30.33 in 10.0 mi NE 5.8 mph - N/A   Clear
11:35 PM 23.0 °F 13.9 °F 17.6 °F 80% 30.33 in 10.0 mi ENE 8.1 mph - N/A   Clear
11:55 PM 23.0 °F 17.0 °F 17.6 °F 80% 30.33 in 10.0 mi ENE 4.6 mph - N/A   Clear